Location: Unspecified
(46.0398°N, 0.0000°E)
Time: 16:57:42
(UTC+00:00)

ISS - Visible Passes

Search period start: 24 May 2019 00:00
Search period end: 03 June 2019 00:00
Orbit: 408 x 418 km, 51.6° (Epoch: 25 May)

Date Brightness Start Highest point End Pass type
(mag) Time Alt. Az. Time Alt. Az. Time Alt. Az.
24 May -1.0 00:40:57 10° WNW 00:41:11 12° WNW 00:41:11 12° WNW visible
24 May -2.1 20:37:30 10° W 20:40:38 35° NNW 20:43:46 10° ENE visible
24 May -2.0 22:14:46 10° WNW 22:17:51 32° N 22:20:20 14° ENE visible
24 May -2.0 23:51:27 10° WNW 23:53:08 27° WNW 23:53:08 27° WNW visible
25 May -1.9 21:25:11 10° WNW 21:28:12 30° N 21:31:13 10° ENE visible
25 May -3.2 23:01:58 10° WNW 23:05:08 58° N 23:05:08 58° N visible
26 May -1.8 20:35:32 10° WNW 20:38:32 30° N 20:41:33 10° ENE visible
26 May -2.7 22:12:29 10° WNW 22:15:42 44° NNE 22:17:09 26° ENE visible
26 May -1.3 23:49:12 10° WNW 23:49:57 15° WNW 23:49:57 15° WNW visible
27 May -2.3 21:22:57 10° WNW 21:26:05 35° NNE 21:29:12 10° E visible
27 May -2.9 22:59:37 10° WNW 23:02:01 42° W 23:02:01 42° W visible
28 May -2.0 20:33:23 10° WNW 20:36:25 31° N 20:39:28 10° ENE visible
28 May -3.7 22:10:05 10° WNW 22:13:26 77° NNE 22:14:05 54° E visible
29 May -3.2 21:20:33 10° WNW 21:23:51 53° NNE 21:26:10 18° E visible
29 May -1.9 22:57:25 10° WNW 22:58:59 21° W 22:58:59 21° W visible
30 May -2.6 20:31:01 10° WNW 20:34:13 41° NNE 20:37:25 10° E visible
30 May -3.5 22:07:43 10° WNW 22:10:57 49° SW 22:11:05 49° SSW visible
31 May -3.8 21:18:05 10° WNW 21:21:27 80° SSW 21:23:14 25° SE visible
31 May -1.0 22:55:57 10° WSW 22:56:03 10° WSW 22:56:03 10° WSW visible
01 Jun -3.5 20:28:31 10° WNW 20:31:51 68° NNE 20:35:12 10° ESE visible
01 Jun -2.1 22:05:38 10° W 22:08:13 22° SW 22:08:13 22° SW visible
02 Jun -2.8 21:15:44 10° WNW 21:18:50 35° SW 21:20:25 22° SSE visible
